Manitowoc, WI

2:56 PM CST on December 12, 2017 (GMT -0600)
Manitowoc County

Weather History for KMTW - January, 2014

Change the Weather History Date:

Tuesday, January 21, 2014

  Actual Average Record
Temperature  
Mean Temperature 2 °F -  
Max Temperature 9 °F 29 °F 49 °F (1964)
Min Temperature -4 °F 15 °F -19 °F (1963)
Degree Days  
Heating Degree Days 62    
Moisture  
Dew Point -8 °F    
Average Humidity 66    
Maximum Humidity 76    
Minimum Humidity 53    
Precipitation  
Precipitation 0.00 in - - ()
Sea Level Pressure  
Sea Level Pressure 30.32 in    
Wind  
Wind Speed 11 mph (WNW)    
Max Wind Speed 17 mph    
Max Gust Speed -    
Visibility 10 miles    
Events Snow    
Averages and records for this station are not official NWS values.
T = Trace of Precipitation, MM = Missing Value Source: NWS Daily Summary

Daily Weather History Graph

Daily Weather History Graph

Search for Another Location

Airport or City:

Trip Planner

Search our weather history database for the weather conditions in past years. The results will help you decide how hot, cold, wet, or windy it might be!

Date:

Astronomy

Jan. 21, 2014 Rise Set
Actual Time 7:18 AM CST 4:45 PM CST
Civil Twilight 6:47 AM CST 5:17 PM CST
Nautical Twilight 6:11 AM CST 5:52 PM CST
Astronomical Twilight 5:37 AM CST 6:27 PM CST
Moon 10:32 PM CST (1/21) 9:35 AM CST (1/21)
Length of Visible Light 10h 30m
Length of Day
9h 27m
Waning Gibbous, 74% of the Moon is Illuminated
Jan 21
Waning Gibbous
Jan 23
Last Quarter
Jan 30
New
Feb 6
First Quarter
Feb 14
Full

Hourly Weather History & Observations

Time (CST) Temp. Windchill Dew Point Humidity Pressure Visibility Wind Dir Wind Speed Gust Speed Precip Events Conditions
12:56 AM 1.0 °F -18.7 °F -8.0 °F 66% 30.29 in 10.0 mi North 16.1 mph - N/A   Clear
1:56 AM 1.0 °F -19.3 °F -8.0 °F 66% 30.31 in 10.0 mi North 17.3 mph - N/A   Clear
2:56 AM -0.0 °F -20.1 °F -8.0 °F 69% 30.33 in 10.0 mi NNW 16.1 mph - N/A   Clear
3:56 AM -0.9 °F -20.6 °F -8.0 °F 72% 30.34 in 10.0 mi NNW 15.0 mph - N/A   Clear
4:56 AM -0.9 °F -19.9 °F -8.0 °F 72% 30.35 in 10.0 mi NNW 13.8 mph - N/A   Clear
5:56 AM -2.0 °F -18.7 °F -9.0 °F 72% 30.37 in 10.0 mi NW 10.4 mph - N/A   Clear
6:56 AM -4.0 °F -22.1 °F -9.9 °F 76% 30.37 in 10.0 mi NW 11.5 mph - N/A   Clear
7:56 AM -2.9 °F -17.7 °F -9.0 °F 75% 30.38 in 10.0 mi NW 8.1 mph - N/A   Clear
8:56 AM 1.9 °F -10.6 °F -8.0 °F 63% 30.38 in 10.0 mi WNW 6.9 mph - N/A   Clear
9:56 AM 3.9 °F -11.3 °F -7.1 °F 60% 30.39 in 10.0 mi NW 10.4 mph - N/A   Clear
10:56 AM 6.1 °F -9.5 °F -6.0 °F 58% 30.38 in 9.0 mi NW 11.5 mph - 0.00 in Snow Light Snow
11:56 AM 9.0 °F -3.2 °F -5.1 °F 53% 30.36 in 10.0 mi NW 8.1 mph - 0.00 in   Clear
12:56 PM 9.0 °F -4.2 °F -5.1 °F 53% 30.34 in 10.0 mi NW 9.2 mph - N/A   Clear
1:56 PM 9.0 °F -2.2 °F -4.0 °F 56% 30.32 in 10.0 mi NW 6.9 mph - N/A   Clear
2:56 PM 7.0 °F -5.7 °F -6.0 °F 55% 30.32 in 10.0 mi WNW 8.1 mph - N/A   Clear
3:56 PM 6.1 °F -6.8 °F -6.0 °F 58% 30.32 in 10.0 mi WNW 8.1 mph - N/A   Clear
4:56 PM 1.9 °F -5.6 °F -7.1 °F 66% 30.29 in 10.0 mi West 3.5 mph - N/A   Clear
5:56 PM -0.9 °F -12.7 °F -9.0 °F 69% 30.30 in 10.0 mi WNW 5.8 mph - N/A   Clear
6:56 PM -2.0 °F -12.2 °F -9.0 °F 72% 30.29 in 10.0 mi WNW 4.6 mph - N/A   Scattered Clouds
7:56 PM -2.0 °F - -9.9 °F 69% 30.27 in 10.0 mi Calm Calm - N/A   Overcast
8:56 PM -0.9 °F -8.9 °F -7.1 °F 75% 30.26 in 10.0 mi WSW 3.5 mph - N/A   Overcast
9:56 PM 1.0 °F -6.7 °F -7.1 °F 69% 30.24 in 10.0 mi West 3.5 mph - N/A   Overcast
10:56 PM -0.0 °F -7.9 °F -8.0 °F 69% 30.23 in 10.0 mi West 3.5 mph - N/A   Overcast
11:56 PM -0.9 °F -11.0 °F -8.0 °F 72% 30.21 in 10.0 mi SW 4.6 mph - N/A   Scattered Clouds